{"data":{"norad_id":47919,"intl_designator":"2021-021BM","name":"STARLINK-2405","alt_names":[],"object_type":"PAYLOAD","status":"ACTIVE","operator":null,"country":"US","launch_date":"2021-03-14","launch_site_code":"AFETR","launch_vehicle":null,"mission":null,"orbit_class":"UNKNOWN","rcs_meters":null,"size_class":null,"mass_kg":null,"dimensions":null,"purposes":["comms"],"wikipedia_slug":null,"has_3d_model":false,"image_url":null,"decayed_at":null,"tle_current":{"epoch":"2026-09-20T02:12:49.904064Z","epoch_age_seconds":65520,"freshness":"FRESH","line1":"1 47919U 21021BM  26263.09224426  .00001005  00000+0  44108-4 0  9990","line2":"2 47919  53.1601  96.2461 0001393  94.6874 265.4287 15.31723065305836","mean_motion":15.31723065,"eccentricity":0.0001393,"inclination_deg":53.1601,"raan_deg":96.2461,"arg_perigee_deg":94.6874,"mean_anomaly_deg":265.4287,"bstar":4.4108e-5,"rev_number":30583,"period_min":94.011772291227,"perigee_km":469.71720153573,"apogee_km":471.62527951154,"semimajor_km":6848.8082405236,"source":"CELESTRAK","updated_at":"2026-09-20T09:00:38.758331Z"}}}